Content
SEND FEEDBACK

Daily
Averages
Monthly
Summary
Turkey

KILIS, TURKEY


Home > Middle East > Turkey
Elevation: 2093 feet     Latitude: 36 06N     Longitude: 037 24E

WEATHER
 
SELECT A DAY
Number of Records: 203,280;   Date Range: 7/1/96 - 4/19/14
 
SHARE

PRINT THIS DATA

[ ← Previous Day ]
WEATHER ALMANAC - FEBRUARY 26, 2013
[ Next Day → ]
[ °C ]   °F
Weather ElementAverageHighLow
Temperature50.1 °F62.6 °F (3:20 pm)33.8 °F (4:20 am)
Dewpoint38.4 °F41 °F (12:50 am)33.8 °F (4:20 am)
Humidity67.1 %100 % (1:50 am)33 % (2:00 pm)
Barometer30.17 in30.24 in (12:50 am)30.09 in (4:20 pm)
Wind Speed4.5 mph8.1 mph (9:20 am)
Wind Gust20.7 mph (1:50 pm)
Weather ElementAverage
Visibility5.7 mi
Wind DirectionSSE (161.4 °)

Weather ElementTotal
Precipitation---
Heating Degree Days16.8 (Base 65)
Averaged from 51 records on February 26, 2013
WEATHER CONDITIONS BREAKOUT
WIND DIRECTION BREAKOUT
WEATHER BY HOUR - FEBRUARY 26, 2013
[ °C ]   °F
Local TimeTemperatureDewpointHumidityBarometerVisibilityWind DirectionWind SpeedGust SpeedPrecipitationEventsConditions
12:50 AM42.8 °F41.0 °F93 %30.24 inVariable1.2 mphClear
1:20 AM41.0 °F39.2 °F93 %30.24 inCalmClear
1:50 AM39.2 °F39.2 °F100 %30.24 inVariable1.2 mphClear
2:00 AM40.0 °F38.0 °F90 %30.24 in6.0 miWNW (300°)1.2 mph
2:20 AM39.2 °F37.4 °F93 %30.24 inWNW (290°)3.5 mphClear
2:50 AM37.4 °F35.6 °F93 %30.24 inCalmClear
3:20 AM39.2 °F39.2 °F100 %30.21 inVariable1.2 mphClear
3:50 AM37.4 °F37.4 °F100 %30.21 inNNW (330°)3.5 mphClear
4:20 AM33.8 °F33.8 °F100 %30.21 inWest (280°)4.6 mphClear
4:50 AM35.6 °F35.6 °F100 %30.21 inWest (260°)1.2 mphClear
5:20 AM39.2 °F35.6 °F87 %30.21 in4.3 miNNW (340°)6.9 mph
5:50 AM35.6 °F33.8 °F93 %30.21 inWNW (300°)4.6 mphClear
6:20 AM39.2 °F35.6 °F87 %30.21 inNW (320°)3.5 mphClear
6:50 AM41.0 °F37.4 °F87 %30.21 inNNW (330°)4.6 mphClear
7:20 AM46.4 °F37.4 °F71 %30.21 inNNW (330°)5.8 mphClear
7:50 AM51.8 °F37.4 °F58 %30.24 inVariable1.2 mphClear
8:00 AM51.0 °F38.0 °F50 %30.23 in6.0 mi°1.2 mph
8:20 AM53.6 °F37.4 °F54 %30.24 inNNE (20°)3.5 mphClear
8:50 AM55.4 °F37.4 °F51 %30.21 inNE (40°)4.6 mphClear
9:20 AM57.2 °F39.2 °F51 %30.21 inEast (80°)8.1 mphClear
9:50 AM57.2 °F37.4 °F48 %30.21 inEast (90°)6.9 mphClear
10:20 AM59.0 °F37.4 °F45 %30.21 inEast (100°)8.1 mphClear
10:50 AM59.0 °F37.4 °F45 %30.18 inENE (70°)6.9 mphClear
11:20 AM59.0 °F37.4 °F45 %30.18 inEast (80°)6.9 mphClear
11:50 AM60.8 °F37.4 °F42 %30.18 inEast (90°)6.9 mphClear
12:20 PM60.8 °F37.4 °F42 %30.15 inEast (100°)8.1 mphClear
12:50 PM60.8 °F37.4 °F42 %30.15 inEast (100°)6.9 mphClear
1:20 PM60.8 °F37.4 °F42 %30.15 inEast (100°)5.8 mphClear
1:50 PM60.8 °F39.2 °F45 %30.12 inEast (90°)5.8 mph20.7 mphClear
2:00 PM61.0 °F39.0 °F33 %30.14 in6.0 miEast (90°)5.8 mph
2:20 PM60.8 °F39.2 °F45 %30.12 inVariable5.8 mphClear
2:50 PM60.8 °F39.2 °F45 %30.12 inEast (80°)6.9 mphClear
3:20 PM62.6 °F39.2 °F42 %30.12 inEast (80°)6.9 mphClear
3:50 PM60.8 °F39.2 °F45 %30.12 inENE (60°)5.8 mphClear
4:20 PM60.8 °F39.2 °F45 %30.09 inENE (70°)8.1 mphClear
4:50 PM59.0 °F41.0 °F51 %30.09 inENE (70°)6.9 mphClear
5:20 PM59.0 °F41.0 °F51 %30.09 inENE (60°)5.8 mphClear
5:50 PM57.2 °F39.2 °F51 %30.09 inENE (60°)5.8 mphClear
6:20 PM53.6 °F41.0 °F62 %30.12 inNorth (360°)1.2 mphClear
6:50 PM53.6 °F41.0 °F62 %30.12 inNorth (360°)3.5 mphClear
7:20 PM50.0 °F41.0 °F71 %30.12 inNorth (350°)4.6 mphClear
7:50 PM48.2 °F41.0 °F76 %30.12 inNorth (350°)4.6 mphClear
8:00 PM49.0 °F41.0 °F64 %30.12 in6.0 miNorth (350°)4.6 mph
8:20 PM50.0 °F41.0 °F71 %30.12 inNNW (340°)3.5 mphClear
8:50 PM46.4 °F41.0 °F81 %30.12 inVariable1.2 mphClear
9:20 PM50.0 °F41.0 °F71 %30.12 inNNW (340°)5.8 mphClear
9:50 PM48.2 °F39.2 °F71 %30.12 inVariable2.3 mphClear
10:20 PM42.8 °F39.2 °F87 %30.12 inNNW (330°)4.6 mphClear
10:50 PM41.0 °F37.4 °F87 %30.12 inVariable2.3 mphClear
11:20 PM42.8 °F37.4 °F81 %30.12 inNNW (340°)3.5 mphClear
11:50 PM44.6 °F39.2 °F81 %30.12 inNNW (340°)4.6 mphClear
Hourly data recorded from LTAJ, located 11.45 miles away from Kilis, Turkey







STORIES FROM OUR PARTNERS